Weather History for Eagle River, WI

Change the Weather History Date:

Friday, November 25, 2011

  Actual Average Record
Temperature  
Mean Temperature 41 °F -  
Max Temperature 47 °F 29 °F 51 °F (1998)
Min Temperature 35 °F 14 °F 3 °F (2005)
Degree Days  
Heating Degree Days 24    
Moisture  
Dew Point 41 °F    
Average Humidity 93    
Maximum Humidity 100    
Minimum Humidity 79    
Precipitation  
Precipitation 0.00 in - - ()
Sea Level Pressure  
Sea Level Pressure 29.73 in    
Wind  
Wind Speed 5 mph (SW)    
Max Wind Speed 10 mph    
Max Gust Speed -    
Visibility 8 miles    
Events      
Averages and records for this station are not official NWS values.
T = Trace of Precipitation, MM = Missing Value Source: NWS Daily Summary

Daily Weather History Graph

Daily Weather History Graph

Search for Another Location

Airport:

Trip Planner

Search our weather history database for the weather conditions in past years. The results will help you decide how hot, cold, wet, or windy it might be!

Date:

Astronomy

Nov. 25, 2011 Rise Set
Actual Time 7:10 AM CST 4:17 PM CST
Civil Twilight 6:37 AM CST 4:50 PM CST
Nautical Twilight 6:00 AM CST 5:27 PM CST
Astronomical Twilight 5:24 AM CST 6:03 PM CST
Moon 7:41 AM CST (11/25) 4:41 PM CST (11/25)
Length of Visible Light 10h 13m
Length of Day
9h 06m
New Moon, 0% of the Moon is Illuminated
Nov 25
New Moon
Dec 2
First Quarter
Dec 10
Full
Dec 17
Last Quarter
Dec 24
New

Hourly Weather History & Observations

Time (CST) Temp. Windchill Dew Point Humidity Pressure Visibility Wind Dir Wind Speed Gust Speed Precip Events Conditions
12:15 AM 42.3 °F 37.9 °F 42.3 °F 100% 29.74 in 5.0 mi SW 6.9 mph - N/A   Clear
12:55 AM 42.4 °F 38.1 °F 42.4 °F 100% 29.73 in 5.0 mi SW 6.9 mph - N/A   Clear
1:15 AM 42.6 °F 37.8 °F 42.6 °F 100% 29.73 in 5.0 mi SW 8.1 mph - N/A   Clear
1:35 AM 42.4 °F 37.0 °F 42.4 °F 100% 29.73 in 5.0 mi SW 9.2 mph - N/A   Clear
1:55 AM 42.6 °F 38.4 °F 42.4 °F 99% 29.73 in 7.0 mi SW 6.9 mph - N/A   Clear
2:15 AM 42.8 °F 39.3 °F 42.4 °F 99% 29.73 in 7.0 mi SW 5.8 mph - N/A   Clear
2:35 AM 42.8 °F 39.3 °F 42.3 °F 98% 29.72 in 7.0 mi SW 5.8 mph - N/A   Clear
2:55 AM 42.8 °F 38.6 °F 42.3 °F 98% 29.72 in 7.0 mi SW 6.9 mph - N/A   Clear
3:15 AM 42.8 °F 38.0 °F 42.1 °F 97% 29.71 in 7.0 mi SW 8.1 mph - N/A   Clear
3:35 AM 42.8 °F 39.3 °F 41.9 °F 97% 29.71 in 10.0 mi SW 5.8 mph - N/A   Clear
4:15 AM 42.6 °F 37.8 °F 41.5 °F 96% 29.71 in 10.0 mi SW 8.1 mph - N/A   Clear
4:35 AM 42.3 °F 38.6 °F 41.4 °F 97% 29.71 in 10.0 mi SW 5.8 mph - N/A   Clear
4:55 AM 42.1 °F 38.4 °F 41.2 °F 97% 29.70 in 10.0 mi SSW 5.8 mph - N/A   Clear
5:15 AM 42.1 °F 39.2 °F 41.0 °F 96% 29.70 in 10.0 mi SSW 4.6 mph - N/A   Clear
5:35 AM 41.7 °F 38.0 °F 41.0 °F 97% 29.71 in 10.0 mi SW 5.8 mph - N/A   Clear
5:55 AM 41.4 °F 38.4 °F 40.8 °F 98% 29.72 in 10.0 mi SW 4.6 mph - N/A   Clear
6:15 AM 40.3 °F 38.2 °F 40.1 °F 99% 29.71 in 10.0 mi SW 3.5 mph - N/A   Clear
6:35 AM 40.1 °F - 40.1 °F 100% 29.70 in 10.0 mi Calm Calm - N/A   Clear
6:55 AM 40.3 °F - 40.3 °F 100% 29.70 in 10.0 mi Calm Calm - N/A   Clear
7:15 AM 40.1 °F - 40.1 °F 100% 29.71 in 10.0 mi Calm Calm - N/A   Clear
7:55 AM 36.5 °F 33.9 °F 36.5 °F 100% 29.72 in 2.5 mi SW 3.5 mph - N/A   Clear
8:15 AM 35.6 °F 32.8 °F 35.6 °F 100% 29.72 in 5.0 mi SW 3.5 mph - N/A   Clear
8:35 AM 37.9 °F - 37.9 °F 100% 29.73 in 10.0 mi Calm Calm - N/A   Clear
8:55 AM 39.4 °F - 39.4 °F 100% 29.72 in 10.0 mi Calm Calm - N/A   Clear
9:15 AM 40.6 °F 36.7 °F 40.3 °F 99% 29.72 in 10.0 mi SW 5.8 mph - N/A   Clear
9:35 AM 43.2 °F 37.4 °F 41.2 °F 93% 29.73 in 10.0 mi SW 10.4 mph - N/A   Clear
9:55 AM 43.2 °F 38.4 °F 41.7 °F 95% 29.73 in 10.0 mi SW 8.1 mph - N/A   Clear
10:15 AM 43.5 °F 38.9 °F 41.9 °F 94% 29.73 in 10.0 mi SW 8.1 mph - N/A   Clear
10:35 AM 43.7 °F 38.6 °F 42.3 °F 95% 29.74 in 10.0 mi SW 9.2 mph - N/A   Clear
10:55 AM 43.9 °F 39.3 °F 42.4 °F 95% 29.74 in 10.0 mi SW 8.1 mph - N/A   Clear
11:35 AM 44.6 °F 41.4 °F 42.6 °F 93% 29.72 in 10.0 mi SW 5.8 mph - N/A   Clear
11:55 AM 45.1 °F 43.7 °F 43.0 °F 92% 29.71 in 10.0 mi WSW 3.5 mph - N/A   Clear
12:15 PM 45.9 °F 42.9 °F 42.6 °F 88% 29.71 in 10.0 mi SW 5.8 mph - N/A   Clear
12:35 PM 46.4 °F 44.3 °F 40.6 °F 80% 29.70 in 10.0 mi WSW 4.6 mph - N/A   Clear
12:55 PM 46.6 °F - 40.5 °F 79% 29.71 in 10.0 mi WSW 3.5 mph - N/A   Clear
1:15 PM 47.1 °F - 40.8 °F 79% 29.72 in 10.0 mi WSW 6.9 mph - N/A   Scattered Clouds
1:35 PM 47.1 °F - 41.0 °F 79% 29.72 in 10.0 mi SW 4.6 mph - N/A   Mostly Cloudy
2:15 PM 47.3 °F - 41.0 °F 79% 29.72 in 10.0 mi WSW 3.5 mph - N/A   Overcast
2:35 PM 47.3 °F - 41.0 °F 79% 29.73 in 10.0 mi Calm Calm - N/A   Overcast
3:15 PM 46.9 °F - 41.0 °F 80% 29.74 in 10.0 mi Calm Calm - N/A   Overcast
3:35 PM 46.4 °F - 41.0 °F 81% 29.74 in 10.0 mi Calm Calm - N/A   Overcast
3:55 PM 46.2 °F 45.0 °F 40.8 °F 81% 29.74 in 7.0 mi South 3.5 mph - N/A   Overcast
4:15 PM 45.9 °F - 40.6 °F 82% 29.75 in 7.0 mi Calm Calm - N/A   Overcast
4:35 PM 45.7 °F - 40.6 °F 83% 29.75 in 10.0 mi Calm Calm - N/A   Overcast
5:15 PM 45.3 °F - 40.6 °F 84% 29.77 in 7.0 mi Calm Calm - N/A   Overcast
5:55 PM 44.4 °F - 42.4 °F 93% 29.76 in 7.0 mi Calm Calm - N/A   Overcast
6:15 PM 44.6 °F 43.1 °F 41.0 °F 87% 29.75 in 7.0 mi SE 3.5 mph - N/A   Overcast
6:35 PM 44.6 °F 43.1 °F 41.4 °F 88% 29.75 in 7.0 mi East 3.5 mph - N/A   Overcast
6:55 PM 44.6 °F - 41.7 °F 90% 29.78 in 7.0 mi Calm Calm - N/A   Overcast
7:35 PM 44.2 °F 42.7 °F 43.0 °F 95% 29.78 in 7.0 mi ESE 3.5 mph - N/A   Overcast
7:55 PM 44.1 °F 42.5 °F 43.9 °F 99% 29.79 in 7.0 mi ESE 3.5 mph - N/A   Light Drizzle
8:15 PM 43.9 °F 42.3 °F 43.9 °F 100% 29.79 in 7.0 mi ESE 3.5 mph - N/A   Overcast
8:35 PM 43.9 °F 41.3 °F 43.9 °F 100% 29.79 in 5.0 mi ESE 4.6 mph - N/A   Light Drizzle
8:55 PM 43.9 °F - 43.9 °F 100% 29.80 in 5.0 mi Calm Calm - N/A   Overcast
9:15 PM 43.7 °F - 43.7 °F 100% 29.80 in 3.0 mi Calm Calm - N/A   Overcast
9:35 PM 43.5 °F 41.9 °F 43.5 °F 100% 29.79 in 2.5 mi SSE 3.5 mph - N/A Rain Rain
10:15 PM 43.3 °F 41.7 °F 43.3 °F 100% 29.78 in 2.5 mi SSE 3.5 mph - N/A   Overcast
10:35 PM 43.2 °F - 43.2 °F 100% 29.78 in 2.5 mi Calm Calm - N/A   Overcast
10:55 PM 43.0 °F 41.3 °F 43.0 °F 100% 29.78 in 3.0 mi SE 3.5 mph - N/A   Overcast
11:15 PM 43.2 °F 41.5 °F 43.2 °F 100% 29.79 in 3.0 mi SSE 3.5 mph - N/A   Overcast
11:35 PM 43.2 °F - 43.2 °F 100% 29.78 in 1.8 mi Calm Calm - N/A   Overcast
11:55 PM 43.3 °F - 43.3 °F 100% 29.78 in 2.0 mi Calm Calm - N/A   Overcast